2021-091G (49321 NORAD) Tracking and Keplerian Element Data

This shows tracking and keplerian element data for the satellite.

Feedback or suggestion? Click here.




ElementValue
Catalog49321
Name2021-091G
Epoch Orbit798
Epoch Day340.13290735
Epoch Year2021
RAAN165.1831
Inclination97.4602
Eccentricity0.0017259
Argument of Perigee83.078
Mean Anonmoly57.5804
Mean Motion15.17820785
Decay Rate2.061E-05
L11 49321U 21091G 21340.13290735 .00002061 00000+0 10490-3 0 9997
L22 49321 97.4602 165.1831 0017259 83.0780 57.5804 15.17820785 7981

Live tracking and technical data element details for 2021-091G (NORAD 49321). 2021-091G can be tracked NOW for your location showing map with azimuth and elevation plus other details from your city location.

Track the satellite on the map from your city or location and see movement details for azimuth, elevation, latitude, longitude, range, height, and movement on the map or in text.







IsCatalogInMostPopularTable: catalog: 49321, numindb: 6
Update: records affected: 1



GetName: 49321 2021-091G

Hit Count: updated at: Mon, 06 Dec 2021 13:50:11 GMT